Tracking 18840 objects as of 18-November-2017
HD Live streaming from Space Station
objects crossing your sky now

DELTA 1 R/B

Track DELTA 1 R/B now!
10-day predictions


NORAD ID: 4251
Int'l Code: 1969-101B
Perigee: 334.1 km
Apogee: 17,741.9 km
Inclination: 27.7 °
Period: 317.3 minutes
Semi major axis: 15408 km
RCS: 1.8664 m2 (large)
Launch date: November 22, 1969
Source: United States (US)
Launch site: AIR FORCE EASTERN TEST RANGE (AFETR)

Note: This is a ROCKET BODY
aabbcc
Your satellite tracking list
Your tracking list is empty




NASA's NSSDC Master Catalog

Two Line Element Set (TLE):
1 04251U 69101B   17318.08652518  .00000655  00000-0  25521-3 0  9998
2 04251  27.6960 260.6965 5648579 180.2182 179.4726  4.53880385535333
Source of the keplerian elements: AFSPC